Content
SEND FEEDBACK

Daily
Averages
Monthly
Summary
United States of America

SULLIGENT, ALABAMA


Home > North America > United States > Alabama
Elevation: 416 feet     Latitude: 33 48N     Longitude: 088 07W

WEATHER
 
SELECT A DAY
Number of Records: 57,595;   Date Range: 1/10/12 - 7/21/14
 
SHARE

PRINT THIS DATA

[ ← Previous Day ]
WEATHER ALMANAC - FEBRUARY 13, 2013
[ Next Day → ]
[ °C ]   °F
Weather ElementAverageHighLow
Temperature44.5 °F48.2 °F (11:35 am)42.8 °F (6:35 pm)
Dewpoint35.2 °F39.2 °F (2:15 am)32 °F (6:35 pm)
Humidity70 %81 % (2:15 am)62 % (11:35 am)
Barometer29.94 in30.09 in (10:35 pm)29.76 in (2:15 am)
Wind Speed6.1 mph11.5 mph (9:15 am)
Wind Gust23 mph (8:55 am)
Weather ElementAverage
Visibility7.8 mi
Wind DirectionWSW (231.6 °)

Weather ElementTotal
Precipitation---
Heating Degree Days19.5 (Base 65)
Averaged from 69 records on February 13, 2013
WEATHER CONDITIONS BREAKOUT
WIND DIRECTION BREAKOUT
WEATHER BY HOUR - FEBRUARY 13, 2013
[ °C ]   °F
Local TimeTemperatureDewpointHumidityBarometerVisibilityWind DirectionWind SpeedGust SpeedPrecipitationEventsConditions
12:35 AM44.6 °F37.4 °F76 %29.80 in1.8 miWSW (240°)3.5 mphHaze
12:55 AM44.6 °F37.4 °F76 %29.79 in1.8 miCalmHaze
1:15 AM44.6 °F37.4 °F76 %29.79 in1.5 miSouth (190°)3.5 mphHaze
1:35 AM44.6 °F37.4 °F76 %29.78 in1.2 miCalmLight Drizzle
1:55 AM44.6 °F37.4 °F76 %29.77 in1.8 miCalmHaze
2:15 AM44.6 °F39.2 °F81 %29.76 in3.0 miCalmHaze
2:35 AM44.6 °F37.4 °F76 %29.78 in2.5 miSSW (210°)4.6 mphHaze
2:55 AM44.6 °F37.4 °F76 %29.77 in3.0 miSSW (200°)4.6 mphHaze
3:15 AM44.6 °F37.4 °F76 %29.76 in2.5 miSouth (190°)3.5 mphHaze
3:35 AM44.6 °F37.4 °F76 %29.77 in3.0 miSSW (210°)5.8 mphHaze
3:55 AM44.6 °F37.4 °F76 %29.77 in7.0 miWSW (240°)5.8 mphOvercast
4:15 AM44.6 °F37.4 °F76 %29.79 in8.0 miWSW (250°)9.2 mphOvercast
4:35 AM44.6 °F39.2 °F81 %29.80 in4.0 miWSW (250°)8.1 mphHaze
4:55 AM44.6 °F39.2 °F81 %29.81 in8.0 miWest (260°)9.2 mph17.3 mphOvercast
5:15 AM44.6 °F39.2 °F81 %29.82 in10.0 miWSW (250°)9.2 mphOvercast
5:35 AM44.6 °F39.2 °F81 %29.83 in10.0 miWSW (250°)9.2 mphOvercast
5:55 AM44.6 °F37.4 °F76 %29.84 in10.0 miWSW (250°)8.1 mphOvercast
6:15 AM44.6 °F37.4 °F76 %29.85 in9.0 miWest (260°)6.9 mphOvercast
6:35 AM44.6 °F37.4 °F76 %29.86 in5.0 miWest (270°)9.2 mphHaze
6:55 AM44.6 °F37.4 °F76 %29.86 in8.0 miWSW (240°)8.1 mphOvercast
7:35 AM44.6 °F37.4 °F76 %29.87 in10.0 miWest (270°)4.6 mphOvercast
7:55 AM44.6 °F37.4 °F76 %29.88 in10.0 miWest (260°)5.8 mphOvercast
8:15 AM44.6 °F37.4 °F76 %29.90 in9.0 miWest (270°)10.4 mphOvercast
8:35 AM46.4 °F37.4 °F71 %29.90 in10.0 miWNW (300°)10.4 mph19.6 mphOvercast
8:55 AM46.4 °F37.4 °F71 %29.91 in9.0 miWNW (300°)10.4 mph23.0 mphOvercast
9:15 AM46.4 °F35.6 °F66 %29.91 in10.0 miWNW (300°)11.5 mph19.6 mphOvercast
9:35 AM44.6 °F35.6 °F71 %29.92 in10.0 miWNW (290°)11.5 mphOvercast
10:15 AM46.4 °F35.6 °F66 %29.94 in9.0 miNW (310°)8.1 mphOvercast
10:35 AM46.4 °F37.4 °F71 %29.95 in10.0 miWNW (300°)11.5 mph18.4 mphOvercast
10:55 AM46.4 °F35.6 °F66 %29.96 in9.0 miWNW (300°)11.5 mph19.6 mphOvercast
11:15 AM46.4 °F35.6 °F66 %29.96 in10.0 miNW (320°)10.4 mph19.6 mphOvercast
11:35 AM48.2 °F35.6 °F62 %29.96 in9.0 miNW (310°)10.4 mphMostly Cloudy
11:55 AM46.4 °F35.6 °F66 %29.97 in10.0 miNW (310°)10.4 mph19.6 mphOvercast
12:15 PM44.6 °F33.8 °F66 %29.96 in9.0 miNW (310°)10.4 mphOvercast
12:35 PM44.6 °F33.8 °F66 %29.96 in9.0 miNW (320°)6.9 mphOvercast
12:55 PM46.4 °F33.8 °F62 %29.96 in9.0 miNW (320°)9.2 mphOvercast
1:15 PM44.6 °F33.8 °F66 %29.96 in9.0 miNW (320°)10.4 mph16.1 mphOvercast
1:35 PM46.4 °F33.8 °F62 %29.96 in9.0 miWNW (300°)10.4 mphOvercast
1:55 PM44.6 °F33.8 °F66 %29.97 in10.0 miNW (320°)11.5 mph20.7 mphOvercast
2:15 PM44.6 °F33.8 °F66 %29.98 in9.0 miNW (320°)10.4 mph16.1 mphOvercast
2:35 PM44.6 °F33.8 °F66 %29.98 in9.0 miNW (310°)10.4 mphOvercast
2:55 PM46.4 °F33.8 °F62 %29.98 in9.0 miNNW (340°)10.4 mphOvercast
3:15 PM44.6 °F33.8 °F66 %29.98 in9.0 miNorth (350°)9.2 mphOvercast
3:35 PM44.6 °F33.8 °F66 %30.00 in9.0 miNNW (330°)8.1 mphOvercast
3:55 PM44.6 °F33.8 °F66 %30.00 in9.0 miNNW (330°)8.1 mphOvercast
4:15 PM44.6 °F33.8 °F66 %30.00 in9.0 miNW (320°)9.2 mphOvercast
4:35 PM44.6 °F33.8 °F66 %30.00 in9.0 miNW (320°)8.1 mphMostly Cloudy
4:55 PM44.6 °F33.8 °F66 %30.01 in8.0 miNNW (330°)6.9 mphMostly Cloudy
5:15 PM44.6 °F33.8 °F66 %30.01 in8.0 miNNW (330°)4.6 mphMostly Cloudy
5:35 PM44.6 °F33.8 °F66 %30.02 in8.0 miNW (320°)3.5 mphOvercast
5:55 PM44.6 °F33.8 °F66 %30.02 in10.0 miNW (310°)3.5 mphOvercast
6:15 PM44.6 °F33.8 °F66 %30.02 in9.0 miCalmOvercast
6:35 PM42.8 °F32.0 °F66 %30.03 in9.0 miCalmOvercast
6:55 PM42.8 °F32.0 °F66 %30.04 in9.0 miCalmOvercast
7:15 PM42.8 °F32.0 °F66 %30.04 in9.0 miWNW (300°)3.5 mphOvercast
7:35 PM42.8 °F32.0 °F66 %30.05 in8.0 miCalmOvercast
7:55 PM42.8 °F32.0 °F66 %30.05 in8.0 miCalmOvercast
8:15 PM42.8 °F33.8 °F70 %30.06 in8.0 miWNW (300°)3.5 mphOvercast
8:35 PM42.8 °F33.8 °F70 %30.06 in8.0 miCalmOvercast
8:55 PM42.8 °F32.0 °F66 %30.07 in7.0 miWNW (290°)3.5 mphOvercast
9:15 PM42.8 °F33.8 °F70 %30.07 in8.0 miWest (280°)3.5 mphOvercast
9:35 PM42.8 °F33.8 °F70 %30.07 in8.0 miCalmOvercast
9:55 PM42.8 °F32.0 °F66 %30.08 in8.0 miWest (280°)3.5 mphOvercast
10:15 PM42.8 °F33.8 °F70 %30.08 in8.0 miWest (270°)3.5 mphOvercast
10:35 PM42.8 °F32.0 °F66 %30.09 in8.0 miWest (270°)3.5 mphOvercast
10:55 PM42.8 °F32.0 °F66 %30.09 in8.0 miCalmOvercast
11:15 PM42.8 °F32.0 °F66 %30.09 in8.0 miCalmOvercast
11:35 PM42.8 °F32.0 °F66 %30.09 in9.0 miWNW (290°)3.5 mphOvercast
11:55 PM42.8 °F32.0 °F66 %30.09 in9.0 miWNW (300°)3.5 mphOvercast
Hourly data recorded from KM40, located miles away from Sulligent, Alabama







STORIES FROM OUR PARTNERS